カタログに戻る

DMSP 5D-2 F13 DEB

運用中SSO
NORAD 42319·DEBRIS·🇺🇸 United States

打ち上げ Mar 24, 1995 から Vandenberg Space Force Base

Loading…

次のパス (今後24時間)

TLE

最新Source: Space-Track

元期: Sep 13, 2026, 09:04 UTC

1 42319U 95015JM  26256.37778018  .00004147  00000-0  13515-2 0  9994
2 42319  98.8772 306.1105 0024384  65.8392 294.5340 14.39072319590990

AllMySatでDMSP 5D-2 F13 DEBをリアルタイム追跡

Download on the App Store